[[{"header":{"parameterUnit":"m.s-1","parameterCategory":1,"la1":30.2991,"la2":30.254,"lo1":-89.0895,"lo2":-89.0444,"dy":0.0017,"dx":0.0017,"nx":28,"ny":28,"refTime":"2024-12-10T09:00:00:Z","depth":0,"parameterNumber":2,"parameterNumberName":"U-component_of_WINDS"},"data":[0,0,0,0,0,0,0,0,0,0,0,0,0,0,0,0,0,0,0,0,0,0,0,0,0,0,0,0,0,0,0,0,0,0,0,0,0,0,0,0,0,0,0,0,0,0,0,0,0,0,0,0,0,0,0,0,0,0,0.4996,0.4996,0,0.4988,0.4987,0.4987,0.4958,0.4958,0.4957,0.4956,0.4948,0.4948,0.4949,0,0,0,0,0,0,0,0,0,0,0,0,0,0.4986,0.4987,0.4996,0.4996,0.4996,0.4988,0.4987,0.4987,0.4958,0.4958,0.4957,0.4956,0.4948,0.4948,0.4949,0,0,0,0,0,0,0,0,0,0,0,0,0,0.4986,0.4987,0.4996,0.498,0.4979,0.4988,0.4987,0.4987,0.4959,0.4958,0.4957,0.4956,0.4948,0.4948,0.4949,0.4972,0,0,0.4951,0.4951,0,0,0,0,0,0,0,0,0.4986,0.4986,0.4983,0.4981,0.498,0.4973,0.4981,0.4982,0.4959,0.4966,0.4956,0.4955,0.4957,0.4957,0.4957,0.4972,0.4971,0.4951,0.4951,0.4951,0.4951,0,0,0,0,0,0,0,0.4986,0.4986,0.4992,0.4982,0.4981,0.4974,0.4972,0.4981,0.4967,0.4965,0.4963,0.4963,0.4956,0.4957,0.4957,0.4971,0.4951,0.4951,0.4951,0.4952,0.5005,0.5006,0,0,0,0,0,0,0.4988,0.4986,0.4993,0.4992,0.498,0.4975,0.4973,0.4976,0.4967,0.4965,0.4964,0.4961,0.4956,0.4956,0.4957,0.4984,0.4951,0.4952,0.4952,0.5004,0.5005,0.5007,0,0,0,0,0,0,0.4988,0.4989,0.4993,0.4989,0.4989,0.4976,0.4979,0.4976,0.4977,0.4966,0.4963,0.4967,0.4956,0.4956,0.4969,0.4983,0.4952,0.4953,0.5003,0.5005,0.5006,0.5039,0,0,0,0,0,0,0.4988,0.4989,0.4998,0.4989,0.4989,0.5005,0.498,0.4977,0.4978,0.4975,0.4968,0.4966,0.4955,0.4968,0.4969,0.4984,0.4953,0.5002,0.5004,0.5006,0.5037,0.5042,0.5046,0,0,0,0,0,0.4988,0.5007,0.4998,0.4999,0.5,0.5006,0.5006,0.4993,0.498,0.4988,0.4981,0.4966,0.4981,0.497,0.4971,0.4986,0.5001,0.5003,0.5005,0.5035,0.5041,0.5046,0,0,0,0,0,0,0.5017,0.5006,0.4996,0.5013,0.5011,0.5001,0.5012,0.5,0.5001,0.4998,0.4982,0.498,0.4996,0.4992,0.4979,0.5008,0.4989,0.4991,0.501,0.5016,0.5021,0.5022,0.4953,0,0,0,0,0,0.5026,0.5032,0.5022,0.5038,0.5037,0.5025,0.5027,0.5017,0.5014,0.5013,0.5007,0.5005,0.5009,0.5012,0.5015,0.5036,0.5034,0.5046,0.5051,0.5055,0.5058,0.5069,0.5075,0.5015,0.5015,0.5014,0,0,0.5044,0.5038,0.5043,0.5044,0.5041,0.5048,0.5024,0.5033,0.5038,0.5014,0.5027,0.5022,0.5018,0.5035,0.5042,0.5032,0.5074,0.5058,0.5061,0.5062,0.5072,0.5078,0.5083,0.5016,0.5016,0.5016,0,0,0.508,0.5076,0.509,0.5088,0.5084,0.5076,0.5079,0.5071,0.5067,0.5079,0.5062,0.5068,0.5075,0.5074,0.5074,0.5111,0.5098,0.5112,0.5137,0.5148,0.5153,0.5157,0.5171,0.5176,0.5115,0.5115,0.5115,0,0.5103,0.5113,0.5099,0.5109,0.511,0.5089,0.5103,0.5101,0.5099,0.51,0.5089,0.5098,0.5094,0.5111,0.512,0.5121,0.5124,0.5113,0.5153,0.5157,0.5161,0.5174,0.5179,0.5117,0.5117,0.5116,0.5116,0,0.5142,0.5149,0.5161,0.5159,0.5162,0.5174,0.5161,0.5165,0.5155,0.5148,0.5161,0.5155,0.5157,0.516,0.515,0.5176,0.517,0.5156,0.5136,0.5169,0.5181,0.5186,0.5119,0.5119,0.5118,0.5118,0,0,0.5197,0.5188,0.5192,0.5192,0.5186,0.5192,0.5203,0.5205,0.521,0.5208,0.5218,0.5225,0.5212,0.5213,0.5202,0.5212,0.5243,0.5197,0.5197,0.5207,0.5272,0.5283,0.5289,0.5234,0.5234,0.5235,0.5273,0,0.5233,0.5251,0.5239,0.526,0.5267,0.5247,0.5257,0.5255,0.5249,0.5254,0.5247,0.5253,0.5235,0.5235,0.5244,0.5237,0.5256,0.5234,0.5243,0.5243,0.5245,0.5296,0.5307,0.5343,0.5277,0.5278,0.5279,0,0.5276,0.5278,0.53,0.5294,0.5296,0.5306,0.5307,0.5312,0.531,0.5304,0.5305,0.5292,0.5303,0.5283,0.5298,0.5284,0.5286,0.5283,0.5284,0.5286,0.5264,0.5299,0.5354,0.536,0.5286,0.5285,0.5285,0,0.5316,0.5323,0.5338,0.5338,0.5331,0.5338,0.5335,0.5331,0.5334,0.5335,0.5337,0.5339,0.5341,0.5343,0.5332,0.5318,0.5349,0.5327,0.5345,0.5346,0.5353,0.5353,0.541,0.5353,0.5353,0.5353,0.5353,0,0.5357,0.5372,0.5355,0.5364,0.538,0.5366,0.5382,0.5377,0.5374,0.5382,0.5364,0.5372,0.5356,0.5362,0.5353,0.5367,0.5368,0.5364,0.5362,0.5367,0.5367,0.5369,0.5366,0.5355,0.5354,0.5354,0.5354,0,0.5404,0.5394,0.5408,0.5401,0.5399,0.5411,0.5405,0.5413,0.5406,0.5416,0.5417,0.5406,0.5413,0.5401,0.5406,0.54,0.542,0.5413,0.5421,0.542,0.5439,0.5438,0.55,0.5508,0.5445,0.5446,0.5446,0,0.5432,0.5443,0.5437,0.5441,0.5439,0.5446,0.5449,0.5435,0.5439,0.5437,0.5445,0.545,0.5454,0.5465,0.5457,0.5461,0.5455,0.5476,0.5455,0.546,0.5456,0.5456,0.5458,0.5481,0.5482,0.5483,0.5483,0,0.5482,0.5477,0.5482,0.5485,0.5489,0.5491,0.5491,0.5496,0.5481,0.5486,0.5493,0.5495,0.5501,0.5506,0.5508,0.5505,0.5492,0.549,0.5494,0.5499,0.5504,0.5503,0.5434,0.5488,0.5488,0.5488,0.5487,0.5487,0.5521,0.553,0.5528,0.5534,0.5533,0.5534,0.5542,0.5536,0.5541,0.5545,0.5536,0.5545,0.5542,0.5544,0.5543,0.555,0.554,0.5546,0.5548,0.555,0.5554,0.5502,0.555,0.555,0.5549,0.5549,0.5549,0,0.5571,0.5569,0.5575,0.5577,0.5582,0.5569,0.5569,0.5574,0.5582,0.5581,0.5585,0.5593,0.5599,0.5592,0.5596,0.5603,0.5597,0.5605,0.5605,0.5604,0.5562,0.5558,0.561,0.561,0.561,0.561,0.561,0.561,0.5598,0.5614,0.5608,0.5623,0.562,0.5629,0.5631,0.5632,0.5631,0.5641,0.5646,0.5641,0.5638,0.5642,0.5647,0.5644,0.5647,0.5657,0.5653,0.5613,0.5607,0.5602,0.5598,0.5658,0.5658,0.5695,0.5696,0.5696]},{"header":{"parameterUnit":"m.s-1","parameterCategory":1,"la1":30.2991,"la2":30.254,"lo1":-89.0895,"lo2":-89.0444,"dy":0.0017,"dx":0.0017,"nx":28,"ny":28,"refTime":"2024-12-10T09:00:00:Z","depth":0,"parameterNumber":3,"parameterNumberName":"V-component_of_WINDS"},"data":[0,0,0,0,0,0,0,0,0,0,0,0,0,0,0,0,0,0,0,0,0,0,0,0,0,0,0,0,0,0,0,0,0,0,0,0,0,0,0,0,0,0,0,0,0,0,0,0,0,0,0,0,0,0,0,0,0,0,4.3565,4.3566,0,4.3653,4.3654,4.3655,4.3644,4.3643,4.3641,4.364,4.373,4.3734,4.3737,0,0,0,0,0,0,0,0,0,0,0,0,0,4.3386,4.339,4.3565,4.3566,4.3567,4.3653,4.3654,4.3656,4.3644,4.3643,4.3641,4.3639,4.3729,4.3733,4.3738,0,0,0,0,0,0,0,0,0,0,0,0,0,4.3468,4.3391,4.3565,4.3572,4.3573,4.3653,4.3654,4.3656,4.3645,4.3643,4.364,4.3638,4.3727,4.3733,4.3738,4.3816,0,0,4.3756,4.3758,0,0,0,0,0,0,0,0,4.3463,4.3475,4.357,4.3572,4.3573,4.3636,4.3624,4.371,4.3645,4.3618,4.364,4.3637,4.37,4.3708,4.3729,4.382,4.3824,4.3756,4.3759,4.3762,4.3763,0,0,0,0,0,0,0,4.3458,4.3471,4.36,4.3571,4.3573,4.3571,4.358,4.364,4.367,4.362,4.3619,4.363,4.3701,4.3724,4.3731,4.3826,4.3756,4.3761,4.3764,4.3767,4.3987,4.3989,0,0,0,0,0,0,4.345,4.3466,4.3597,4.3602,4.3512,4.3576,4.3586,4.3618,4.3669,4.3675,4.3632,4.3629,4.3715,4.3725,4.3734,4.3831,4.3762,4.3767,4.377,4.3984,4.3987,4.399,0,0,0,0,0,0,4.3447,4.3462,4.3593,4.3534,4.3551,4.3581,4.3617,4.3621,4.3644,4.3678,4.3683,4.365,4.3714,4.3727,4.3796,4.3834,4.377,4.3775,4.3981,4.3985,4.3989,4.4023,0,0,0,0,0,0,4.3441,4.3461,4.3491,4.3535,4.3554,4.3654,4.3619,4.3624,4.3653,4.3651,4.3697,4.3702,4.3713,4.3788,4.3802,4.384,4.3779,4.3978,4.3983,4.3987,4.4019,4.4027,4.4035,0,0,0,0,0,4.3435,4.3496,4.3492,4.3508,4.3592,4.3656,4.3667,4.3679,4.3656,4.3687,4.3709,4.3701,4.3827,4.3795,4.3811,4.3851,4.3976,4.3982,4.3987,4.4015,4.4026,4.4035,0,0,0,0,0,0,4.3455,4.3502,4.3498,4.3576,4.3612,4.3654,4.3693,4.3689,4.3733,4.3728,4.3741,4.3751,4.3822,4.3843,4.3807,4.393,4.3898,4.3907,4.3914,4.3925,4.3933,4.3927,4.3784,0,0,0,0,0,4.3468,4.3517,4.3555,4.362,4.3638,4.3662,4.3691,4.3697,4.3735,4.375,4.3778,4.3815,4.3863,4.3895,4.3941,4.4021,4.4032,4.4056,4.4064,4.4071,4.4079,4.4125,4.4137,4.4008,4.4008,4.4008,0,0,4.3497,4.3528,4.3558,4.3625,4.3654,4.3704,4.3676,4.3729,4.3767,4.3758,4.3827,4.3848,4.389,4.3966,4.4001,4.3986,4.4117,4.4078,4.4083,4.4088,4.4132,4.4144,4.4155,4.4012,4.4011,4.4011,0,0,4.3574,4.3602,4.366,4.369,4.3735,4.375,4.3764,4.3807,4.3821,4.389,4.3885,4.3929,4.4012,4.4043,4.407,4.416,4.4154,4.4174,4.4217,4.4262,4.4272,4.4281,4.4315,4.4327,4.4182,4.4182,4.4182,0,4.3604,4.368,4.369,4.3746,4.3776,4.377,4.3829,4.3857,4.3915,4.3936,4.3918,4.4022,4.405,4.4134,4.4156,4.4177,4.4194,4.417,4.427,4.4279,4.4287,4.432,4.4333,4.4184,4.4184,4.4184,4.4183,0,4.3715,4.3767,4.3809,4.3865,4.3899,4.3956,4.3976,4.4009,4.4012,4.403,4.41,4.4134,4.4187,4.4207,4.421,4.4292,4.4282,4.4267,4.4235,4.4302,4.4333,4.4346,4.4187,4.4187,4.4186,4.4185,0,0,4.3809,4.3871,4.3886,4.3912,4.3961,4.4002,4.4058,4.4111,4.414,4.4179,4.4228,4.4298,4.4285,4.4315,4.4321,4.436,4.4432,4.4341,4.4342,4.4358,4.4527,4.454,4.4554,4.4428,4.443,4.4432,4.4524,0,4.3893,4.3994,4.4006,4.4096,4.4145,4.4141,4.4191,4.4226,4.4244,4.4289,4.4308,4.4359,4.4336,4.4355,4.4393,4.4415,4.4467,4.4408,4.4475,4.4477,4.4467,4.457,4.4584,4.4669,4.4536,4.4538,4.454,0,4.4005,4.4049,4.4144,4.4188,4.4209,4.4253,4.4303,4.4346,4.4386,4.4396,4.443,4.4432,4.4491,4.4456,4.4538,4.4499,4.4526,4.4541,4.4545,4.4554,4.4514,4.4584,4.4697,4.4711,4.4559,4.4557,4.4556,0,4.4067,4.4149,4.4218,4.424,4.4291,4.4323,4.4346,4.4384,4.4415,4.4459,4.448,4.4529,4.4557,4.4595,4.461,4.4583,4.4693,4.4658,4.4705,4.4704,4.473,4.4728,4.4851,4.4743,4.4743,4.4743,4.4743,0,4.4161,4.422,4.4246,4.4289,4.4355,4.4367,4.4433,4.4454,4.4488,4.4535,4.4533,4.4577,4.4593,4.4639,4.4651,4.4719,4.4731,4.4742,4.4745,4.4744,4.4743,4.4764,4.4759,4.4746,4.4746,4.4745,4.4744,0,4.4242,4.4262,4.4336,4.4379,4.4391,4.4439,4.4476,4.4517,4.4534,4.4593,4.4608,4.4635,4.469,4.4708,4.4774,4.4782,4.4862,4.4858,4.4849,4.485,4.4896,4.4893,4.5038,4.5059,4.4936,4.4937,4.4938,0,4.4302,4.4348,4.4396,4.4428,4.4452,4.4502,4.4535,4.4548,4.4582,4.4632,4.4668,4.4722,4.4767,4.4855,4.4881,4.4932,4.4931,4.4978,4.4938,4.4936,4.4935,4.4933,4.4938,4.4987,4.4988,4.4989,4.499,0,4.4407,4.4415,4.4462,4.4513,4.4552,4.4593,4.4632,4.4658,4.4677,4.4715,4.4772,4.4807,4.4875,4.4929,4.4982,4.5005,4.5002,4.5002,4.5016,4.5016,4.501,4.5016,4.4872,4.4999,4.4998,4.4997,4.4997,4.4996,4.4482,4.4523,4.4564,4.4617,4.4648,4.4685,4.4726,4.4749,4.4796,4.4853,4.4858,4.4919,4.4959,4.5029,4.5055,4.5104,4.5091,4.511,4.5115,4.5121,4.5126,4.5,4.5113,4.5113,4.5112,4.5112,4.5112,0,4.4589,4.4615,4.4664,4.4719,4.4761,4.4753,4.4796,4.4832,4.4886,4.4924,4.4968,4.5034,4.5087,4.5117,4.5171,4.5204,4.5204,4.5218,4.5217,4.5223,4.5133,4.5117,4.5217,4.5217,4.5217,4.5217,4.5217,4.5217,4.465,4.472,4.4733,4.4818,4.4844,4.4904,4.493,4.4964,4.4995,4.5068,4.5113,4.5132,4.5167,4.5223,4.5272,4.528,4.53,4.5316,4.5323,4.5239,4.5229,4.5218,4.5203,4.532,4.532,4.5409,4.5409,4.541]}]]